Probability
5 18 40 52 54 55 55 53 49 44 36 27 22 18 15 11 9 8 6 4 2 0 0 0 0 0 0 0 0 0 0 0 0 0 0 0 0 0 0 0 0 0 0
11 23 42 52 54 55 56 55 50 45 39 32 26 22 18 14 11 9 7 5 3 1 0 0 0 0 0 0 0 0 0 0 0 0 0 0 0 0 0 0 0 0 0
22 29 44 54 55 56 57 56 52 47 44 38 30 25 22 19 14 10 7 5 3 1 0 0 0 0 0 0 0 0 0 0 0 0 0 0 0 0 0 0 0 0 0
31 35 46 55 57 57 57 57 54 49 45 39 32 27 24 21 15 11 8 6 2 0 0 0 0 0 0 0 0 0 0 0 0 0 0 0 0 0 0 0 0 0 0
34 38 48 57 60 58 57 58 56 51 44 38 34 29 25 20 15 11 9 6 3 1 0 0 0 0 0 0 0 0 0 0 0 0 0 0 0 0 0 0 0 0 0
34 40 51 61 63 60 58 58 58 52 44 39 36 31 24 19 15 12 9 6 3 1 0 0 0 0 0 0 0 0 0 0 0 0 0 0 0 0 0 0 0 0 0
32 40 51 61 66 64 59 58 57 53 45 40 37 31 24 19 15 12 9 6 3 1 0 0 0 0 0 0 0 0 0 0 0 0 0 0 0 0 0 0 0 0 0
31 37 46 55 64 67 62 58 56 52 46 42 38 30 24 21 16 11 8 5 2 0 0 0 0 0 0 0 0 0 0 0 0 0 0 0 0 0 0 0 0 0 0
30 35 41 47 57 63 60 56 54 50 45 42 37 29 23 20 15 11 7 3 1 0 0 0 0 0 0 0 0 0 0 0 0 0 0 0 0 0 0 0 0 0 0
30 32 37 42 48 53 52 49 46 42 39 37 31 24 18 16 13 9 5 2 0 0 0 0 0 0 0 0 0 0 0 0 0 0 0 0 0 0 0 0 0 0 0
30 31 35 40 44 45 43 40 37 34 31 27 22 17 13 10 8 5 2 0 0 0 0 0 0 0 0 0 0 0 0 0 0 0 0 0 0 0 0 0 0 0 0
28 29 33 39 42 41 38 35 32 28 23 18 14 12 10 7 4 1 0 0 0 0 0 0 0 0 0 0 0 0 0 0 0 0 0 0 0 0 0 0 0 0 0
25 26 30 36 39 38 36 34 29 24 20 14 11 10 8 5 1 0 0 0 0 0 0 0 0 0 0 0 0 0 0 0 0 0 0 0 0 0 0 0 0 0 0
21 24 28 33 35 35 34 32 27 22 18 14 11 10 8 4 1 0 0 0 0 0 0 0 0 0 0 0 0 0 0 0 0 0 0 0 0 0 0 0 0 0 0
19 23 28 31 32 30 30 30 26 20 16 14 12 10 6 3 1 0 0 0 0 0 0 0 0 0 0 0 0 0 0 0 0 0 0 0 0 0 0 0 0 0 0
18 22 28 30 28 25 26 28 25 19 15 13 12 10 6 2 0 0 0 0 0 0 0 0 0 0 0 0 0 0 0 0 0 0 0 0 0 0 0 0 0 0 0
17 21 26 27 23 19 21 23 22 17 13 11 12 11 6 3 1 0 0 0 0 0 0 0 0 0 0 0 0 0 0 0 0 0 0 0 0 0 0 0 0 0 0
16 20 24 22 18 14 14 16 17 15 11 9 10 10 7 3 1 0 0 0 0 0 0 0 0 0 0 0 0 0 0 0 0 0 0 0 0 0 0 0 0 0 0
15 19 20 17 13 9 8 10 12 12 11 8 8 8 6 3 1 0 0 0 0 0 0 0 0 0 0 0 0 0 0 0 0 0 0 0 0 0 0 0 0 0 0
14 17 18 15 10 7 7 8 9 10 10 8 6 7 6 3 1 0 0 0 0 0 0 0 0 0 0 0 0 0 0 0 0 0 0 0 0 0 0 0 0 0 0
13 15 16 12 9 8 8 7 7 9 10 8 6 6 5 2 1 0 0 0 0 0 0 0 0 0 0 0 0 0 0 0 0 0 0 0 0 0 0 0 0 0 0
11 11 12 10 8 9 7 5 5 8 9 8 5 4 3 2 0 0 0 0 0 0 0 0 0 0 0 0 0 0 0 0 0 0 0 0 0 0 0 0 0 0 0
9 8 8 8 8 8 5 4 4 6 8 7 4 1 1 1 1 0 0 0 0 0 0 0 0 0 0 0 0 0 0 0 0 0 0 0 0 0 0 0 0 0 0
7 6 5 7 8 7 5 3 4 5 6 6 4 1 1 1 1 0 0 0 0 0 0 0 0 0 0 0 0 0 0 0 0 0 0 0 0 0 0 0 0 0 0
6 4 4 6 7 6 4 3 3 4 5 6 5 2 1 0 0 0 0 0 0 0 0 0 0 0 0 0 0 0 0 0 0 0 0 0 0 0 0 0 0 0 0
5 4 3 4 5 5 3 2 2 3 4 6 6 3 1 0 0 0 0 0 0 0 0 0 0 0 0 0 0 0 0 0 0 0 0 0 0 0 0 0 0 0 0
Wind_Speed
9 15 21 19 19 19 19 19 19 18 18 17 17 17 17 16 16 16 16 16 15 15 15 15 16 16 16 16 16 16 16 15 15 15 15 15 15 14 14 14 13 9 15
11 16 21 19 19 19 19 19 18 18 17 17 17 17 17 17 16 16 16 16 15 15 15 16 16 16 16 15 15 15 14 13 13 14 15 13 14 15 14 14 13 9 14
13 16 19 19 18 18 18 18 18 18 18 18 17 17 17 16 16 16 16 15 15 15 16 16 16 16 15 15 14 13 12 10 9 10 12 7 9 14 14 14 14 14 14
12 14 17 19 18 18 18 18 18 18 18 18 17 17 17 17 16 16 15 15 15 15 15 15 15 15 15 14 13 12 10 8 7 8 6 7 6 12 13 14 14 14 14
10 11 16 20 19 18 18 19 19 18 18 18 17 17 17 17 17 16 16 15 15 15 15 15 15 15 14 14 13 11 9 7 7 8 7 7 5 11 13 13 13 13 13
9 9 14 20 20 19 18 18 18 18 18 18 18 17 17 17 17 16 15 15 15 15 15 15 15 14 14 13 11 9 7 6 5 6 7 6 5 11 12 12 12 12 13
8 9 13 20 20 19 19 18 18 18 18 18 18 18 17 17 16 16 15 15 16 16 15 14 14 14 13 12 10 8 5 4 5 6 6 5 6 11 11 11 11 12 12
8 9 11 17 19 19 19 18 18 18 18 18 18 18 17 17 16 16 15 15 16 15 15 14 14 13 12 11 9 6 3 4 6 7 6 5 8 10 10 10 10 11 11
7 8 9 11 15 17 18 18 18 18 18 18 18 17 17 17 17 16 15 15 15 15 15 14 13 13 12 10 8 4 3 4 3 4 7 4 8 9 10 10 10 10 10
6 7 9 9 11 11 12 16 17 17 17 17 16 15 15 15 15 15 14 14 15 15 14 13 12 12 11 10 7 3 2 3 2 5 4 4 8 8 8 8 8 8 8
6 7 9 10 10 10 10 13 14 15 16 15 14 16 14 9 9 10 12 13 14 14 14 13 12 11 10 8 6 2 2 0 3 4 4 6 7 7 7 7 7 7 7
7 7 8 10 10 10 10 9 8 9 10 10 9 11 8 7 7 9 12 13 13 13 13 13 12 11 7 3 3 3 1 1 3 4 4 7 6 5 6 6 5 5 5
8 8 8 8 9 10 7 8 5 6 7 9 11 10 8 7 6 7 5 7 7 9 6 8 8 4 4 4 3 2 2 1 2 3 4 7 5 5 5 4 4 4 4
8 7 8 8 8 9 8 7 7 6 7 7 9 11 8 6 6 7 5 5 5 4 5 5 3 4 4 5 4 3 2 1 3 3 4 7 5 3 3 3 2 2 2
9 8 8 8 8 9 8 7 8 7 7 8 8 9 9 7 7 7 6 6 5 4 5 5 4 4 4 4 3 3 3 2 3 4 3 6 5 3 2 2 1 1 1
10 10 8 8 8 8 8 7 7 7 7 8 8 9 10 8 7 7 7 6 5 5 5 4 5 4 3 3 3 3 3 2 3 5 4 4 5 5 3 1 1 1 1
9 9 9 9 9 9 9 9 7 7 6 7 8 10 10 9 9 7 6 6 6 6 6 4 4 3 3 3 3 3 2 2 2 4 4 4 3 4 4 3 2 2 3
9 9 9 8 9 9 8 8 6 7 7 6 7 9 10 10 10 8 6 6 6 5 5 4 3 3 3 3 2 2 2 2 2 2 3 3 3 3 4 5 4 3 4
9 9 9 9 9 9 8 7 7 7 7 6 6 8 10 11 11 8 7 6 7 5 4 4 3 3 3 3 2 2 2 2 2 2 2 3 3 3 3 4 5 4 4
8 9 9 8 9 9 7 6 5 6 6 5 6 8 11 10 11 9 7 8 7 6 5 4 4 4 3 3 3 2 2 2 2 3 3 3 3 3 3 3 3 4 5
7 8 9 9 9 8 7 7 7 7 7 6 6 10 11 11 11 9 7 8 7 6 6 6 5 5 3 3 3 1 1 3 3 3 3 2 3 4 4 4 3 3 3
7 8 9 10 10 10 8 7 6 6 6 6 6 8 11 11 11 10 9 8 7 6 7 7 5 4 3 4 4 3 1 2 3 4 3 3 3 3 4 4 3 3 2
6 8 8 9 10 10 9 6 5 5 5 5 7 7 9 11 11 10 10 8 8 7 7 7 7 7 5 4 4 4 3 3 2 2 4 3 3 3 3 3 4 4 3
6 5 7 8 9 10 10 9 10 8 7 7 7 7 9 11 11 11 11 10 9 7 7 7 7 5 6 5 4 3 3 3 2 1 2 3 4 4 4 3 4 3 3
5 5 4 6 8 10 10 10 10 8 7 6 7 9 10 10 11 12 11 10 9 8 8 8 7 7 6 5 4 3 2 1 2 3 2 2 2 3 3 4 3 3 3
2 4 4 5 7 8 10 11 11 11 10 10 10 10 10 8 9 12 12 10 10 8 9 8 8 8 7 6 5 4 4 3 3 3 3 3 3 3 3 3 3 3 2
Wind_Direction
132 148 159 160 158 156 155 152 149 147 144 141 138 135 131 127 124 121 119 116 115 114 112 109 104 100 96 93 89 87 86 85 84 81 77 75 75 71 67 67 67 58 62
136 148 158 160 160 159 157 154 151 148 146 144 142 139 135 132 129 126 123 121 119 116 114 111 106 103 99 96 94 92 90 91 93 92 84 74 72 71 68 67 69 67 66
134 146 157 160 161 160 158 155 152 150 148 146 145 141 138 136 133 130 127 125 122 119 115 111 108 105 101 99 97 95 93 94 94 93 91 82 72 73 72 71 71 69 68
135 145 159 160 162 161 160 157 154 152 150 148 146 144 141 139 136 133 131 129 125 121 117 114 110 107 104 102 99 97 95 89 79 77 81 78 71 74 73 71 70 67 67
132 145 157 160 162 163 162 159 156 154 152 150 148 146 144 142 140 137 134 131 127 124 120 116 114 111 108 105 102 100 95 80 62 73 79 78 71 79 75 71 69 69 67
134 143 153 161 164 165 164 161 159 157 156 154 152 149 147 146 143 139 135 133 130 127 123 120 118 116 113 110 107 103 92 67 61 71 72 78 74 80 78 76 74 70 67
140 145 154 163 166 166 166 164 162 159 157 156 153 151 149 147 144 139 137 135 133 129 126 124 123 119 116 114 110 104 79 46 82 81 77 74 78 81 81 79 76 71 67
142 145 154 163 167 167 167 166 163 161 159 156 154 153 151 148 145 143 141 138 136 133 129 128 126 124 120 117 113 104 58 28 88 94 88 80 84 85 83 79 75 71 66
144 148 155 165 167 170 170 168 164 162 160 158 156 154 151 148 148 147 144 143 141 137 134 132 131 128 124 121 118 109 40 19 55 94 96 86 89 87 83 78 75 71 67
153 157 161 167 166 167 170 168 164 162 161 159 156 151 147 147 147 146 143 144 143 141 138 136 135 133 130 128 129 124 341 347 89 91 91 96 93 90 86 82 77 72 69
169 169 168 171 169 167 169 169 164 161 161 158 153 147 144 146 144 144 141 144 146 145 143 141 140 137 134 137 146 173 292 268 98 89 85 100 99 95 91 88 81 75 68
185 183 179 174 170 167 169 165 168 165 160 159 155 154 154 150 148 144 140 144 145 146 147 147 147 145 140 149 175 203 239 187 114 104 106 108 103 102 100 96 86 76 67
190 192 186 182 173 167 163 165 168 165 164 165 163 164 156 147 141 134 140 141 142 145 146 150 151 165 171 163 175 198 217 137 114 110 115 115 108 110 110 105 93 80 63
195 195 190 185 178 168 165 168 168 171 170 167 167 165 157 148 145 146 150 153 154 155 152 156 172 178 171 164 176 183 167 122 116 113 122 122 117 114 116 110 105 85 60
205 197 195 185 181 173 167 169 172 175 172 167 166 166 158 151 152 151 156 157 160 155 157 166 175 172 173 172 180 163 151 151 133 125 129 135 137 142 143 146 133 72 33
206 196 193 185 182 176 173 170 169 170 172 167 164 164 157 152 153 153 155 157 158 156 161 167 173 167 168 163 166 155 154 158 144 135 143 148 156 165 175 195 214 276 316
208 197 195 188 181 180 178 175 169 164 169 170 165 163 158 153 154 153 153 156 158 158 161 169 172 159 156 153 163 166 155 157 147 144 151 156 164 179 187 201 220 260 287
205 202 198 194 185 182 181 176 168 166 165 171 168 162 160 157 155 153 153 159 158 157 160 164 158 152 150 153 162 162 143 134 152 161 159 159 162 169 188 202 218 246 273
203 198 197 191 189 183 179 175 168 165 162 166 166 161 163 161 158 156 157 161 158 155 158 164 155 151 151 161 164 162 163 171 182 190 185 175 171 162 164 188 206 229 251
202 193 194 193 192 177 173 170 164 165 164 165 171 166 163 163 161 157 157 163 158 155 161 161 157 158 156 163 160 158 182 191 191 197 200 181 174 177 183 185 193 222 233
197 191 195 194 189 176 175 174 171 173 167 168 174 169 166 163 162 159 161 164 161 162 167 166 159 163 163 148 124 131 259 225 209 203 198 186 193 194 194 196 197 198 215
199 196 198 193 188 183 183 178 171 165 170 167 169 174 170 166 165 163 163 166 166 163 169 175 161 158 167 155 147 148 216 272 252 214 195 197 207 199 202 204 199 196 193
203 199 201 194 189 186 179 171 162 163 165 170 174 180 175 168 166 165 167 167 170 167 172 178 170 164 168 174 170 163 165 207 238 235 211 202 206 206 209 202 197 200 198
201 206 202 195 195 188 179 177 176 181 185 182 172 176 177 174 171 170 171 172 173 172 173 179 174 165 161 174 196 209 187 164 153 230 260 223 212 213 211 202 195 200 193
195 191 207 200 197 187 184 184 183 188 188 173 169 175 182 179 178 175 175 175 176 177 178 179 174 171 171 173 178 182 205 217 183 163 227 248 242 228 209 195 189 194 192
199 188 203 203 198 194 192 190 191 192 188 178 175 181 182 179 180 179 179 179 180 180 182 181 178 177 179 181 182 177 170 173 193 186 204 222 231 237 213 191 183 192 190